This demonstration page uses our WeatherBlox Daily Observations layout. Learn more.

Hourly Observations for December 13, 2019

Temp ( °F °C ) Dew Point ( °F °C ) Humidity (%) Winds ( mph kmh ) Pressure ( in mb ) Visibility ( mi km ) Precip ( " mm )
12:15 am 00:15 Cloudy 32 0 23 -5 69 69 Calm 30.55 1035 10 16.0934 0 0
12:35 am 00:35 Cloudy 32 0 27 -3 80 80 Calm 30.54 1034 10 16.0934 0 0
12:55 am 00:55 Cloudy 32 0 25 -4 75 75 Calm 30.54 1034 10 16.0934 0 0
1:15 am 01:15 Cloudy 32 0 25 -4 75 75 Calm 30.53 1034 10 16.0934 0 0
1:35 am 01:35 Cloudy 32 0 25 -4 75 75 Calm 30.53 1034 10 16.0934 0 0
1:55 am 01:55 Cloudy 32 0 27 -3 80 80 Calm 30.52 1034 10 16.0934 0 0
2:15 am 02:15 Cloudy 32 0 27 -3 80 80 Calm 30.51 1033 10 16.0934 0 0
2:35 am 02:35 Cloudy 32 0 27 -3 80 80 Calm 30.51 1033 10 16.0934 0 0
2:55 am 02:55 Cloudy 32 0 27 -3 80 80 NNW 3 6 30.5 1033 10 16.0934 0 0
3:15 am 03:15 Cloudy 32 0 27 -3 80 80 Calm 30.5 1033 10 16.0934 0 0
3:35 am 03:35 Cloudy 32 0 27 -3 80 80 NE 3 6 30.48 1032 10 16.0934 0 0
3:55 am 03:55 Cloudy 32 0 27 -3 80 80 Calm 30.48 1032 10 16.0934 0 0
4:15 am 04:15 Cloudy 32 0 27 -3 80 80 Calm 30.47 1032 10 16.0934 0 0
4:35 am 04:35 Cloudy 32 0 27 -3 80 80 E 6 9 30.44 1031 10 16.0934 0 0
4:55 am 04:55 Cloudy 32 0 27 -3 80 80 Calm 30.44 1031 10 16.0934 0 0
5:15 am 05:15 Cloudy 32 0 27 -3 80 80 Calm 30.43 1031 10 16.0934 0 0
5:35 am 05:35 Cloudy 32 0 27 -3 80 80 Calm 30.42 1030 10 16.0934 0 0
5:55 am 05:55 Cloudy 32 0 28 -2 87 87 NNE 3 6 30.41 1030 10 16.0934 0 0
6:15 am 06:15 Cloudy 32 0 28 -2 87 87 Calm 30.43 1031 10 16.0934 0 0
6:35 am 06:35 Cloudy 32 0 28 -2 87 87 Calm 30.42 1030 10 16.0934 0 0
6:55 am 06:55 Cloudy 32 0 28 -2 87 87 NNE 5 7 30.41 1030 10 16.0934 0 0
7:15 am 07:15 Cloudy 32 0 28 -2 87 87 Calm 30.42 1030 10 16.0934 0 0
7:35 am 07:35 Cloudy 32 0 28 -2 87 87 NNE 5 7 30.41 1030 10 16.0934 0 0
7:55 am 07:55 Cloudy 32 0 28 -2 87 87 NNE 5 7 30.4 1030 10 16.0934 0 0
8:15 am 08:15 Cloudy 32 0 30 -1 93 93 NNE 5 7 30.39 1029 5 8.0467 0 0
8:35 am 08:35 Cloudy 32 0 30 -1 93 93 N 6 9 30.39 1029 5 8.0467 0 0
8:55 am 08:55 Cloudy 32 0 30 -1 93 93 NNE 3 6 30.39 1029 5 8.0467 0 0
9:15 am 09:15 Cloudy 32 0 30 -1 93 93 N 6 9 30.39 1029 5 8.0467 0 0
9:35 am 09:35 Cloudy 32 0 30 -1 93 93 NNE 3 6 30.39 1029 5 8.0467 0 0
9:55 am 09:55 Cloudy 32 0 32 0 100 100 N 3 6 30.38 1029 5 8.0467 0 0
10:15 am 10:15 Cloudy 32 0 32 0 100 100 NNE 3 6 30.37 1029 3 4.82802 0 0
10:35 am 10:35 Cloudy 32 0 32 0 100 100 N 5 7 30.35 1028 3 4.82802 0.02 0.508
10:55 am 10:55 Cloudy 32 0 32 0 100 100 NNE 5 7 30.34 1027 2.5 4.02335 0.05 1.27
11:15 am 11:15 Cloudy 32 0 32 0 100 100 NNE 3 6 30.33 1027 3 4.82802 0.02 0.508
11:35 am 11:35 Cloudy 32 0 32 0 100 100 NNE 6 9 30.31 1026 3 4.82802 0.04 1.016
11:55 am 11:55 Cloudy 32 0 32 0 100 100 NNE 6 9 30.3 1026 3 4.82802 0.05 1.27
12:15 pm 12:15 Cloudy 32 0 32 0 100 100 N 5 7 30.28 1025 3 4.82802 0.01 0.254
12:35 pm 12:35 Cloudy 32 0 32 0 100 100 N 6 9 30.27 1025 4 6.43736 0.02 0.508
12:55 pm 12:55 Cloudy 32 0 32 0 100 100 NNE 5 7 30.25 1024 4 6.43736 0.03 0.762
1:15 pm 13:15 Cloudy 32 0 32 0 100 100 NNE 7 11 30.23 1024 3 4.82802 0 0
1:35 pm 13:35 Cloudy 32 0 32 0 100 100 NNE 6 9 30.22 1023 3 4.82802 0 0
1:55 pm 13:55 Cloudy 32 0 32 0 100 100 NNE 6 9 30.2 1023 3 4.82802 0 0
2:15 pm 14:15 Cloudy 32 0 32 0 100 100 Calm 30.19 1022 3 4.82802 0 0
2:35 pm 14:35 Cloudy 32 0 32 0 100 100 NNE 5 7 30.18 1022 3 4.82802 0.01 0.254
2:55 pm 14:55 Cloudy 32 0 32 0 100 100 NNE 5 7 30.17 1022 2.5 4.02335 0.01 0.254
3:15 pm 15:15 Cloudy 32 0 32 0 100 100 NNE 6 9 30.16 1021 2 3.21868 0 0
3:35 pm 15:35 Cloudy 32 0 32 0 100 100 NNE 6 9 30.15 1021 1.75 2.816345 0 0
3:55 pm 15:55 Cloudy 32 0 32 0 100 100 N 8 13 30.14 1021 0.75 1.207005 0 0
4:15 pm 16:15 Cloudy 32 0 32 0 100 100 NNE 7 11 30.13 1020 0.5 0.80467 0 0
4:35 pm 16:35 Cloudy 32 0 32 0 100 100 NNE 7 11 30.12 1020 0.5 0.80467 0 0
4:55 pm 16:55 Cloudy 32 0 32 0 100 100 NNE 6 9 30.12 1020 0.5 0.80467 0 0
5:15 pm 17:15 Cloudy 32 0 32 0 100 100 NNE 5 7 30.11 1020 0.5 0.80467 0 0
5:35 pm 17:35 Cloudy 32 0 32 0 100 100 N 3 6 30.11 1020 0.5 0.80467 0 0
5:55 pm 17:55 Cloudy 32 0 32 0 100 100 N 8 13 30.1 1019 0.5 0.80467 0 0
6:15 pm 18:15 Cloudy 32 0 32 0 100 100 N 6 9 30.09 1019 0.25 0.402335 0 0
6:35 pm 18:35 Cloudy 32 0 32 0 100 100 NNE 7 11 30.07 1018 0.5 0.80467 0 0
6:55 pm 18:55 Cloudy 32 0 32 0 100 100 N 6 9 30.06 1018 0.5 0.80467 0 0
7:15 pm 19:15 Cloudy 32 0 32 0 100 100 NNE 6 9 30.05 1018 0.25 0.402335 0 0
7:35 pm 19:35 Cloudy 32 0 32 0 100 100 NNE 6 9 30.03 1017 0.5 0.80467 0 0
7:55 pm 19:55 Cloudy 34 1 34 1 100 100 N 7 11 30.02 1017 0.5 0.80467 0 0
8:15 pm 20:15 Cloudy 34 1 34 1 100 100 N 6 9 30.02 1017 0.5 0.80467 0 0
8:35 pm 20:35 Cloudy 34 1 34 1 100 100 NNW 3 6 30 1016 0.5 0.80467 0 0
8:55 pm 20:55 Cloudy 34 1 34 1 100 100 NNE 6 9 29.98 1015 1 1.60934 0 0
9:15 pm 21:15 Cloudy 34 1 34 1 100 100 N 8 13 29.97 1015 1 1.60934 0 0
9:35 pm 21:35 Cloudy 34 1 34 1 100 100 Calm 29.96 1015 3 4.82802 0 0
9:55 pm 21:55 Cloudy 36 2 36 2 100 100 NNE 3 6 29.94 1014 1.75 2.816345 0 0
10:15 pm 22:15 Cloudy 34 1 34 1 100 100 Calm 29.93 1014 1.75 2.816345 0 0
10:35 pm 22:35 Cloudy 34 1 34 1 100 100 NNE 3 6 29.9 1013 1.25 2.011675 0 0
10:55 pm 22:55 Cloudy 34 1 34 1 100 100 N 5 7 29.88 1012 1.75 2.816345 0 0
11:15 pm 23:15 Cloudy 34 1 34 1 100 100 N 7 11 29.87 1012 2.5 4.02335 0.01 0.254
11:35 pm 23:35 Cloudy 34 1 34 1 100 100 N 5 7 29.85 1011 2 3.21868 0.01 0.254
11:55 pm 23:55 Cloudy 36 2 36 2 100 100 N 5 7 29.83 1010 2.5 4.02335 0.01 0.254

Powered by AerisWeather